Location: Newark
(35.6799°N, 139.7636°E)
Time: 09:04:12
(UTC+00:00)

Explorer 7 - Pass Details

Date: 13 December 2019
Orbit: 485 x 679 km, 50.3° (Epoch: 21 January)

Event Time Altitude Azimuth Distance (km) Brightness Sun altitude
Rises 10:27:24 0° 314° (NW) 3,034 11.1 -35.5°
Enters shadow 10:29:41 - 325° (NW) 2,253 10.2 -36.0°
Reaches altitude 10° 10:30:08 10° 327° (NNW) 2,110 - -36.1°
Maximum altitude 10:34:14 26° 24° (NNE) 1,308 - -36.9°
Drops below altitude 10° 10:38:12 10° 81° (E) 2,049 - -37.7°
Sets 10:40:49 0° 94° (E) 2,927 - -38.2°
